FW7230 Weather Reports


Display with metric or nautical units.
time (UTC)temp
F
wind
direction
speed
MPH
gust
MPH
rain 1hr
in
rain 24hr
in
rain mn
in
humidity
%
barometer
mb
20260903060330 78 203 1.0 3.0 0.00 0.00 0.00 75 1012.9
20260903055338 79 203 1.0 2.0 0.00 0.00 0.00 75 1012.9
20260903054325 79 167 1.0 4.0 0.00 0.00 0.00 74 1012.9
20260903053324 79 224 1.0 3.0 0.00 0.00 0.00 73 1012.9
20260903052332 80 201 1.0 2.0 0.00 0.00 0.00 72 1012.8
20260903051337 80 208 0.0 4.0 0.00 0.00 0.00 71 1012.8
20260903050334 80 160 1.0 5.0 0.00 0.00 0.00 71 1012.8
20260903045332 81 194 2.0 4.0 0.00 0.00 0.00 70 1012.8
20260903044932 81 158 1.0 6.0 0.00 0.00 0.00 70 1012.9
20260903043338 81 197 2.0 4.0 0.00 0.00 0.00 69 1012.8
20260903042343 81 145 3.0 5.0 0.00 0.00 0.00 69 1012.9
20260903041350 82 194 1.0 5.0 0.00 0.00 0.00 67 1012.8
20260903040345 82 183 2.0 5.0 0.00 0.00 0.00 67 1012.9
20260903035343 82 160 2.0 6.0 0.00 0.00 0.00 66 1012.8
20260903035202 84 200 2.0 5.0 0.00 0.00 0.00 64 1012.8
20260903031332 84 146 3.0 6.0 0.00 0.00 0.00 64 1012.8
20260903030411 84 138 2.0 6.0 0.00 0.00 0.00 63 1012.8
20260903025433 84 190 2.0 7.0 0.00 0.00 0.00 63 1012.8
20260903024328 85 143 2.0 5.0 0.00 0.00 0.00 63 1012.7
20260903023347 85 151 2.0 7.0 0.00 0.00 0.00 63 1012.7
20260903022329 85 170 2.0 5.0 0.00 0.00 0.00 63 1012.7
20260903021332 85 186 2.0 5.0 0.00 0.00 0.00 63 1012.7
20260903020331 85 129 1.0 5.0 0.00 0.00 0.00 63 1012.6
20260903015339 85 181 2.0 6.0 0.00 0.00 0.00 63 1012.5
20260903014326 85 110 2.0 6.0 0.00 0.00 0.00 64 1012.4
20260903013345 85 162 3.0 6.0 0.00 0.00 0.00 64 1012.3
20260903012353 86 188 2.0 6.0 0.00 0.00 0.00 63 1012.1
20260903011433 87 202 1.0 4.0 0.00 0.00 0.00 62 1012.1
20260903010329 87 163 3.0 6.0 0.00 0.00 0.00 60 1012.0
20260903010203 88 208 1.0 3.0 0.00 0.00 0.00 57 1011.9
20260903004334 90 188 1.0 5.0 0.00 0.00 0.00 54 1011.9
20260903003336 92 165 1.0 4.0 0.00 0.00 0.00 52 1011.9
20260903002341 94 162 1.0 5.0 0.00 0.00 0.00 50 1011.9
20260903001326 95 203 2.0 5.0 0.00 0.00 0.00 49 1011.9
20260903000326 96 198 3.0 6.0 0.00 0.00 0.00 48 1011.9
20260902235334 96 163 3.0 5.0 0.00 0.00 0.00 47 1011.9
20260902234340 97 201 1.0 6.0 0.00 0.00 0.00 48 1012.0
20260902233358 97 123 4.0 8.0 0.00 0.00 0.00 46 1012.0
20260902232324 97 208 3.0 7.0 0.00 0.00 0.00 47 1012.0
20260902231327 97 205 4.0 10.0 0.00 0.00 0.00 45 1012.0
20260902230347 97 204 5.0 10.0 0.00 0.00 0.00 45 1012.0
20260902225433 98 191 5.0 12.0 0.00 0.00 0.00 45 1012.0
20260902224350 98 225 7.0 12.0 0.00 0.00 0.00 44 1012.0
20260902223410 98 176 4.0 10.0 0.00 0.00 0.00 44 1012.1
20260902222329 98 208 6.0 14.0 0.00 0.00 0.00 44 1012.0
20260902221335 98 209 8.0 13.0 0.00 0.00 0.00 44 1012.0
20260902220334 99 210 7.0 10.0 0.00 0.00 0.00 43 1012.1
20260902215340 99 198 5.0 10.0 0.00 0.00 0.00 44 1012.2
20260902214329 99 203 7.0 12.0 0.00 0.00 0.00 43 1012.3
20260902213347 99 190 6.0 13.0 0.00 0.00 0.00 44 1012.3
20260902212329 99 182 6.0 13.0 0.00 0.00 0.00 45 1012.4
20260902211335 99 225 6.0 18.0 0.00 0.00 0.00 46 1012.5
20260902210334 99 228 8.0 13.0 0.00 0.00 0.00 45 1012.6
20260902205334 99 185 7.0 14.0 0.00 0.00 0.00 45 1012.6
20260902204343 99 165 7.0 14.0 0.00 0.00 0.00 44 1012.7
20260902203341 99 228 8.0 15.0 0.00 0.00 0.00 44 1012.8
20260902202341 99 181 8.0 12.0 0.00 0.00 0.00 45 1012.9
20260902201328 99 207 6.0 16.0 0.00 0.00 0.00 44 1013.0
20260902200327 99 209 8.0 12.0 0.00 0.00 0.00 44 1013.0
20260902195352 99 207 6.0 13.0 0.00 0.00 0.00 46 1013.2
20260902194340 99 232 8.0 12.0 0.00 0.00 0.00 46 1013.4
20260902193338 99 219 7.0 11.0 0.00 0.00 0.00 46 1013.4
20260902192705 99 173 7.0 13.0 0.00 0.00 0.00 47 1013.5
20260902191334 99 184 7.0 14.0 0.00 0.00 0.00 45 1013.6
20260902190330 98 209 6.0 13.0 0.00 0.00 0.00 48 1013.6
20260902185334 98 241 7.0 14.0 0.00 0.00 0.00 47 1013.7
20260902184339 98 221 8.0 14.0 0.00 0.00 0.00 46 1013.9
20260902183338 98 198 8.0 14.0 0.00 0.00 0.00 46 1014.0
20260902182325 97 153 4.0 12.0 0.00 0.00 0.00 50 1014.0
20260902181704 96 238 9.0 14.0 0.00 0.00 0.00 49 1014.1
20260902180347 96 212 7.0 14.0 0.00 0.00 0.00 50 1014.3
20260902175325 96 210 9.0 13.0 0.00 0.00 0.00 48 1014.4
20260902174704 95 205 7.0 13.0 0.00 0.00 0.00 51 1014.7
20260902171359 95 217 6.0 12.0 0.00 0.00 0.00 51 1014.8
20260902170336 94 189 5.0 13.0 0.00 0.00 0.00 53 1014.9
20260902165342 94 210 6.0 13.0 0.00 0.00 0.00 52 1014.9
20260902164330 94 208 6.0 11.0 0.00 0.00 0.00 54 1015.0
20260902163348 93 205 5.0 11.0 0.00 0.00 0.00 54 1015.0
20260902162327 92 194 5.0 10.0 0.00 0.00 0.00 55 1015.1
20260902161331 92 255 6.0 10.0 0.00 0.00 0.00 54 1015.1
20260902160436 91 249 5.0 12.0 0.00 0.00 0.00 56 1015.0
20260902155323 91 217 5.0 10.0 0.00 0.00 0.00 58 1015.0
20260902154331 90 198 5.0 10.0 0.00 0.00 0.00 58 1014.9
20260902153326 89 211 4.0 12.0 0.00 0.00 0.00 59 1014.9
20260902152355 88 263 5.0 11.0 0.00 0.00 0.00 60 1014.9
20260902151341 88 250 7.0 11.0 0.00 0.00 0.00 59 1014.9
20260902150338 88 151 2.0 8.0 0.00 0.00 0.00 63 1014.8
20260902145324 87 179 3.0 7.0 0.00 0.00 0.00 64 1014.9
20260902144329 86 218 5.0 8.0 0.00 0.00 0.00 64 1014.9
20260902143346 85 205 3.0 6.0 0.00 0.00 0.00 66 1014.9
20260902142345 84 164 3.0 6.0 0.00 0.00 0.00 68 1014.8
20260902141331 83 205 4.0 7.0 0.00 0.00 0.00 70 1014.8
20260902140347 81 211 3.0 6.0 0.00 0.00 0.00 71 1014.8
20260902135327 80 197 3.0 6.0 0.00 0.00 0.00 73 1014.7
20260902134333 79 221 3.0 7.0 0.00 0.00 0.00 75 1014.8
20260902133330 78 233 4.0 6.0 0.00 0.00 0.00 77 1014.8
20260902132337 77 214 3.0 6.0 0.00 0.00 0.00 77 1014.8
20260902131322 76 249 3.0 5.0 0.00 0.00 0.00 78 1014.8
20260902130341 76 242 3.0 5.0 0.00 0.00 0.00 77 1014.8
20260902125328 75 243 2.0 4.0 0.00 0.00 0.00 81 1014.7
20260902124334 74 222 0.0 2.0 0.00 0.00 0.00 84 1014.8
20260902123334 72 241 0.0 1.0 0.00 0.00 0.00 87 1014.8
20260902122341 70 221 1.0 3.0 0.00 0.00 0.00 89 1014.8
20260902121328 69 219 0.0 1.0 0.00 0.00 0.00 89 1014.7
20260902120325 69 219 0.0 1.0 0.00 0.00 0.00 90 1014.6
20260902115332 68 229 0.0 1.0 0.00 0.00 0.00 88 1014.6
20260902114338 69 229 0.0 0.0 0.00 0.00 0.00 86 1014.7
20260902113336 70 229 0.0 0.0 0.00 0.00 0.00 84 1014.5
20260902112339 71 229 0.0 0.0 0.00 0.00 0.00 82 1014.5
20260902111327 71 229 0.0 0.0 0.00 0.00 0.00 83 1014.5
20260902110340 72 229 0.0 0.0 0.00 0.00 0.00 82 1014.5
20260902105341 71 229 0.0 2.0 0.00 0.00 0.00 84 1014.5
20260902104329 71 241 0.0 1.0 0.00 0.00 0.00 84 1014.5
20260902103346 71 240 0.0 0.0 0.00 0.00 0.00 83 1014.5
20260902102327 72 241 0.0 0.0 0.00 0.00 0.00 80 1014.5
20260902101335 72 241 0.0 0.0 0.00 0.00 0.00 79 1014.4
20260902100334 73 240 0.0 0.0 0.00 0.00 0.00 79 1014.4
20260902095341 73 241 0.0 0.0 0.00 0.00 0.00 79 1014.4
20260902094322 73 240 0.0 1.0 0.00 0.00 0.00 79 1014.3
20260902093340 73 240 0.0 0.0 0.00 0.00 0.00 79 1014.2
20260902092327 73 240 0.0 0.0 0.00 0.00 0.00 79 1014.2
20260902091352 73 240 0.0 1.0 0.00 0.00 0.00 79 1014.2
20260902090330 74 241 0.0 2.0 0.00 0.00 0.00 79 1014.2
20260902085336 74 246 0.0 1.0 0.00 0.00 0.00 79 1014.2
20260902084324 74 246 0.0 1.0 0.00 0.00 0.00 78 1014.2
20260902083323 74 246 0.0 1.0 0.00 0.00 0.00 77 1014.2
20260902082331 75 253 0.0 1.0 0.00 0.00 0.00 77 1014.2
20260902081337 75 259 1.0 2.0 0.00 0.00 0.00 76 1014.2
20260902080332 75 264 2.0 3.0 0.00 0.00 0.00 76 1014.1
20260902075339 75 258 2.0 3.0 0.00 0.00 0.00 75 1013.9
20260902074326 75 253 1.0 2.0 0.00 0.00 0.00 76 1013.7
20260902073707 75 253 2.0 3.0 0.00 0.00 0.00 76 1013.7
20260902072328 75 238 1.0 2.0 0.00 0.00 0.00 76 1013.6
20260902071334 75 259 1.0 2.0 0.00 0.00 0.00 76 1013.7
20260902070332 75 258 1.0 2.0 0.00 0.00 0.00 75 1013.7
20260902065338 76 258 1.0 2.0 0.00 0.00 0.00 74 1013.8
20260902064325 76 229 0.0 2.0 0.00 0.00 0.00 74 1013.8
20260902063324 76 197 0.0 3.0 0.00 0.00 0.00 73 1013.9
20260902062330 76 218 1.0 3.0 0.00 0.00 0.00 73 1013.9
20260902061355 76 193 1.0 4.0 0.00 0.00 0.00 73 1013.9